Location: Palm Bay
(27.9400°N, 80.7200°W)
Time: 14:40:47
(UTC-04:00)

Daily predictions for brighter satellites

Satellite Brightness Start Highest point End
(mag) Time Altitude Azimuth Time Altitude Azimuth Time Altitude Azimuth
Cosmos 1092 Rocket 4.0 20:10:35 10° S 20:16:42 89° ESE 20:22:54 10° N
SEDSat Delta rocket 4.1 20:11:48 10° WNW 20:18:38 87° NNE 20:25:19 10° ESE
Meteor 1-20 Rocket 4.2 20:14:13 10° S 20:19:45 67° E 20:25:13 10° NNE
NOSS 3-1 (A) 4.3 20:15:22 10° SW 20:20:47 52° WNW 20:26:45 10° NNE
Cosmos 1452 Rocket 3.6 20:19:02 10° S 20:24:10 56° ESE 20:29:20 10° NNE
Cosmos 1441 Rocket 3.8 20:21:22 10° NNE 20:24:50 35° E 20:28:17 10° SSE
Intercosmos 25 Rocket 3.0 20:21:45 10° N 20:24:51 56° E 20:28:20 10° SSE
NOSS 2-3 (E) 4.5 20:21:01 10° S 20:24:58 30° ESE 20:29:09 10° NE
Cosmos 1420 Rocket 4.4 20:22:47 10° SSE 20:27:32 38° E 20:32:18 10° NE
Cosmos 1633 2.8 20:24:46 10° SSE 20:28:12 45° E 20:31:40 10° NNE
Okean 1 4.4 20:25:40 10° NNE 20:29:00 25° E 20:32:21 10° SE
Delta R/B 1.6 20:27:11 10° W 20:30:08 71° S 20:31:17 14° E
Cosmos 405 Rocket 2.7 20:27:27 10° N 20:31:19 80° E 20:35:15 10° S
Cosmos 1461 3.6 20:28:54 10° NNW 20:33:23 65° WSW 20:37:59 10° SSE
Lacrosse 5 rocket 3.4 20:32:06 10° NNE 20:33:34 12° NE 20:35:03 10° ENE
FengYun 1-2 T 4.3 20:28:36 10° SSE 20:34:12 78° ENE 20:39:52 10° N
XTE 4.0 20:32:26 10° WSW 20:35:01 29° S 20:37:05 14° ESE
Cosmos 1782 Rocket 3.9 20:31:19 10° SSW 20:35:37 69° W 20:39:56 10° N
Cosmos 407 Rocket 3.8 20:30:38 10° N 20:35:49 49° ENE 20:40:54 10° SSE
Cosmos 921 Rocket 3.5 20:32:03 10° SSW 20:36:11 62° WNW 20:40:19 10° N
HJ-1C 3.3 20:34:24 10° SSE 20:37:48 77° ENE 20:41:12 10° N
Cosmos 1378 Rocket 4.0 20:34:43 10° NNW 20:39:07 67° W 20:43:27 10° S
Cosmos 1190 Rocket 4.1 20:34:22 10° N 20:39:35 61° ENE 20:44:48 10° SSE
Cosmos 2360 Rocket 3.7 20:36:53 10° SE 20:39:46 14° E 20:42:37 10° ENE
Cosmos 1980 Rocket 3.3 20:35:04 10° SW 20:40:29 50° WNW 20:45:55 10° N
Cosmos 2227 Rocket 3.9 20:36:52 10° NW 20:41:57 35° WSW 20:47:01 10° SSW
Resurs 01 Rocket 2.2 20:38:02 10° SE 20:42:10 39° ENE 20:46:19 10° N
Helios 1B rocket 4.1 20:44:52 10° ENE 20:47:00 15° E 20:47:00 15° E
Iridium 30 4.0 20:48:43 10° S 20:51:31 81° E 20:54:54 10° N
CZ-2D R/B 3.2 20:49:54 10° SSE 20:53:43 65° ENE 20:57:33 10° N
Cosmos 2151 Rocket 3.6 20:50:12 10° S 20:54:27 53° E 20:58:44 10° NNE
Cosmos 676 Rocket 4.3 20:50:57 10° N 20:56:07 49° ENE 21:00:13 16° SE
Meteosat 1 Rocket2 3.8 20:52:53 10° WSW 20:57:40 63° SSE 21:03:37 15° E
Lacrosse 5 1.9 20:52:49 10° SSW 20:57:45 54° ESE 21:02:41 10° NE
GPS 2-12 Rocket1 4.1 20:54:03 10° WSW 20:58:01 29° S 21:00:08 20° SE
SeaSat 1 2.4 20:53:18 10° NNE 20:58:15 87° ESE 21:03:11 10° SSW
NOSS 2-3 (C) 3.6 20:53:58 10° SSW 20:58:28 71° ESE 21:03:22 10° NNE
Cosmos 1975 Rocket 3.2 20:54:28 10° N 20:58:55 79° W 21:03:18 10° S
Spot 2 Rocket 3.6 20:56:56 10° SSE 21:01:57 60° ENE 21:06:58 10° N
Cosmos 44 3.8 20:59:11 10° N 21:03:20 36° ENE 21:05:15 25° ESE
Cosmos 1140 Rocket 3.9 21:03:18 10° N 21:08:17 43° ENE 21:10:47 26° SE
H-2A R/B 4.5 21:05:10 10° SSW 21:08:38 33° W 21:12:05 10° NNW
Atlas Centaur 2 3.0 21:01:45 10° W 21:10:06 74° N 21:15:23 20° E
Cosmos 614 Rocket 4.4 21:09:13 10° N 21:14:01 40° ENE 21:15:50 30° ESE
Cosmos 1655 Rocket 4.4 21:10:52 10° SSW 21:17:03 66° W 21:23:19 10° N
Cosmos 1954 Rocket 4.0 21:12:28 10° N 21:17:45 67° ENE 21:20:45 26° SSE
CZ-4C R/B 3.8 21:11:24 10° NW 21:18:42 49° WSW 21:26:24 10° S
STPSAT 2 (USA 217) 4.5 21:15:26 10° NNW 21:19:55 71° ENE 21:21:49 34° SSE
Skynet4D Del rocket 3.9 21:13:51 10° W 21:20:56 83° S 21:24:15 30° E
Helios 1A 4.1 21:21:40 28° ENE 21:21:40 28° ENE 21:25:07 10° NNE
Cosmos 2227 4.1 21:16:06 10° NNW 21:21:44 71° ENE 21:24:46 28° SSE
GPS 2-18 Rocket1 4.2 21:19:26 10° WSW 21:22:28 26° S 21:22:28 26° S
Cosmos 1536 Rocket 3.7 21:18:57 10° N 21:23:10 50° E 21:24:04 43° ESE
Palapa 6 Rocket 4.2 21:20:27 10° WSW 21:25:40 47° S 21:27:59 33° SE
ERS-1 Rocket 4.5 21:26:23 20° ENE 21:26:23 20° ENE 21:29:29 10° NNE
USA 186 2.7 21:28:05 24° SSW 21:29:43 47° W 21:32:58 10° NNW
Meteor 1-11 Rocket 3.9 21:24:57 10° S 21:30:50 77° W 21:36:39 10° N
Envisat 2.9 21:27:41 22° SSE 21:31:01 87° WSW 21:36:07 10° NNW
BREEZE M DEB (TANK) 3.8 21:15:05 10° SW 21:31:06 83° NW 21:34:57 11° NE
GOES 2 Rocket 3.9 21:29:27 10° W 21:34:34 40° SSW 21:35:35 35° S
ATLAS 3B R/B 4.5 21:33:57 10° NNE 21:36:52 13° NE 21:38:05 12° ENE
USA 267 3.8 21:32:48 20° SSE 21:37:14 53° SW 21:43:37 10° NW
SJ-11-01 4.1 21:38:43 52° SSE 21:39:49 77° ENE 21:44:29 10° N
Cosmos 2322 Rocket 3.6 21:44:00 10° SW 21:49:15 38° WNW 21:54:33 10° N
Cosmos 883 Rocket 4.4 21:49:17 10° N 21:55:21 63° E 21:56:04 59° ESE
Cosmos 2263 Rocket 2.6 21:50:38 10° N 21:55:53 47° ENE 21:55:53 47° ENE
Cosmos 1939 Rocket 3.4 21:56:10 52° WSW 21:56:23 53° W 22:00:17 10° NNW
Delta 2 Rocket 4.3 21:52:56 10° W 21:56:59 47° NNW 21:57:46 42° NNE
Spot 1 4.4 21:57:12 67° ENE 21:57:12 67° ENE 22:02:13 10° N
Cosmos 1110 Rocket 3.8 21:58:42 66° S 21:59:27 88° ESE 22:04:38 10° NNE
SL-16 R/B 4.0 21:55:08 10° SW 22:00:03 30° WNW 22:05:00 10° N
Cosmos 44 Rocket 4.0 21:57:07 10° NW 22:01:40 45° WSW 22:02:28 41° SW
Meteor 1-23 Rocket 4.1 21:57:17 10° N 22:02:42 70° ENE 22:02:42 70° ENE
Cosmos 1536 4.3 22:01:09 22° SW 22:03:10 35° W 22:06:55 10° NNW
ATLAS 2AS CENTAUR R/B 3.5 21:56:43 10° SW 22:04:02 58° WNW 22:11:57 10° NNE
YAOGAN 6 4.3 22:08:45 31° NW 22:08:45 31° NW 22:10:50 10° NNW
Cosmos 2322 3.5 22:08:47 80° S 22:09:07 89° ESE 22:14:48 10° NNE
Lacrosse 5 rocket 2.8 22:09:12 10° NW 22:11:31 33° WNW 22:11:31 33° WNW
Cosmos 1331 Rocket 4.1 22:14:52 70° NW 22:14:52 70° NW 22:19:42 10° NNE
Okean 1 Rocket 4.1 22:15:27 41° W 22:15:38 41° W 22:19:46 10° N
Cosmos 1850 Rocket 4.1 22:10:41 10° NNW 22:15:44 72° WNW 22:15:44 72° WNW
Resurs 01 Rocket 4.5 22:16:48 10° WSW 22:18:42 13° W 22:20:37 10° WNW
H-2A ROCKET BODY 4.3 22:15:34 10° SW 22:15:50 11° SW 22:15:50 11° SW
Helios 1B rocket 4.3 22:18:57 10° NNW 22:22:27 28° WNW 22:23:21 25° W
Cosmos 2360 Rocket 2.8 22:17:44 10° SW 22:23:12 52° WNW 22:28:41 10° N
Cosmos 1607 4.3 22:21:04 10° NNW 22:26:39 56° NNE 22:26:39 56° NNE
Cosmos 2315 Rocket 4.0 22:26:08 10° N 22:31:52 76° NNW 22:31:52 76° NNW
Lacrosse 5 4.4 22:37:25 10° W 22:40:56 19° NW 22:44:28 10° N
Milstar 3 4.5 22:41:24 10° W 22:55:50 38° SW 22:57:13 37° SSW
Atlas Centaur 2 3.2 22:52:19 10° WNW 22:58:01 51° W 22:58:01 51° W
H-2A R/B 4.2 23:10:30 21° NNW 23:10:30 21° NNW 23:12:09 10° NNW
ATLAS 3B R/B 3.9 23:21:47 10° NNW 23:25:21 34° NNW 23:25:21 34° NNW
